Regional Weather Roundup
Issued by NWS Green Bay, WI

Home | Current Version | Previous Version | Text Only | Print | Product List | Glossary On
Versions: 1 2 3 4 5 6 7 8 9 10 11 12 13 14 15 16 17 18 19 20 21 22 23 24 25 26 27 28 29 30 31 32 33 34 35 36 37 38 39 40 41 42 43 44 45 46 47 48 49 50
000
ASUS43 KGRB 311110
RWRGRB

NORTH-CENTRAL AND NORTHEAST WISCONSIN REGIONAL WEATHER ROUNDUP
NATIONAL WEATHER SERVICE GREEN BAY WI
600 AM CDT SUN AUG 31 2014

WIZ005-009-010>012-018-019-311200-
NORTH CENTRAL WISCONSIN

CITY           SKY/WX    TMP DP  RH WIND       PRES   REMARKS
IRONWOOD       CLOUDY    50  48  93 CALM      29.92R VSB 1/4
MANITOWISH WTR FOG       52  52 100 CALM      29.94S VSB<1/4
ARBOR VITAE    MOCLDY    52  51  95 CALM      29.94S FOG
EAGLE RIVER    FOG       52  52 100 CALM      29.94F VSB 1/4
LAND O LAKES   FOG       53  53 100 CALM      29.96S VSB 1/4
RHINELANDER    FOG       52  52 100 CALM      29.95S VSB 1/4
PHILLIPS       FOG       50  50 100 CALM      29.93S VSB 1/4
ANTIGO         CLOUDY    52  52 100 CALM      29.94F FOG
TOMAHAWK       FOG       49  49  98 CALM      29.94S VSB 1/4
MERRILL        FOG       51  51 100 CALM      29.93F VSB 1/4
$$

WIZ013-073-311200-
NORTHEAST WISCONSIN

CITY           SKY/WX    TMP DP  RH WIND       PRES   REMARKS
IRON MOUNTAIN  CLOUDY    57  55  93 N3        29.94R
MARINETTE      CLOUDY    61  57  88 CALM      29.92S
OCONTO         CLOUDY    59  59 100 CALM      29.92S
$$

WIZ017-030-035>037-045-311200-
CENTRAL WISCONSIN

CITY           SKY/WX    TMP DP  RH WIND       PRES   REMARKS
MEDFORD        CLOUDY    56  56  98 CALM      29.92S
WAUSAU         CLOUDY    60  57  89 E5        29.91F
MOSINEE        CLOUDY    59  59 100 E5        29.93F
MARSHFIELD     MOCLDY    60  58  92 E5        29.92F
WISC RAPIDS    CLOUDY    62  61  96 SE5       29.94S
STEVENS POINT  CLOUDY    60  59  97 CALM      29.94F
WAUPACA        CLOUDY    64  63  94 CALM      29.93F
SHAWANO        CLOUDY    63  59  87 CALM      29.94S
CLINTONVILLE   CLOUDY    61  59  94 CALM      29.94S
$$

WIZ038-039-048-051-311200-
FOX VALLEY

CITY           SKY/WX    TMP DP  RH WIND       PRES   REMARKS
NWS GREEN BAY  CLOUDY    63  60  90 CALM      29.94S
APPLETON       CLOUDY    63  61  94 NE5       29.94S
OSHKOSH        CLOUDY    66  63  90 N5        29.93S
FOND DU LAC    MOCLDY    62  60  93 MISG      29.94R
$$

WIZ022-050-052-311200-
EAST CENTRAL WISCONSIN

CITY           SKY/WX    TMP DP  RH WIND       PRES   REMARKS
STURGEON BAY   CLOUDY    61  57  88 NW6       29.94R
MANITOWOC      CLOUDY    65  62  90 CALM      29.94R FOG
SHEBOYGAN      CLOUDY    65  63  93 CALM      29.93S
$$

LMZ563-521-522-541>543-311200-
LAKESHORE

STATION/POSITION TIME  TEMP    WIND        PRES    VSBY  WAVE
                       AIR SEA DIR/SP/G                  HT/PER
                 (UTC) (F)     (DEG/KT/KT) (MB)    (MI)  (FT/S)
SHEBOYGAN LKSHOR 1100   63 50   10/  2/  3 1013.6R
KEWAUNEE LKSHORE 1100   63     320/  2/  5 1012.6S
NORTHPORT PIER   1100   63     290/  4/  6 1013.2R
N MID LAKE BUOY  1100   62 65  300/  8/ 10 1012.9R         2/ 5
S GREEN BAY BUOY 1100   63     VRB  4/  6  1014.6R
CHAMBERS ISLAND  1100   62     270/  2/  8 1013.5S
MENOMINEE LKSHOR 1100   61     290/  3/  5 1014.1R
$$


USA.gov is the U.S. government's official web portal to all federal, state and local government web resources and services.